Showing default

SECOR 4 (EGRS 4), 1315

Orbit data source: Space-Track

SECOR 4 (EGRS 4), 1315 is an American payload satellite in LEO that was launched on Sat, 03 Apr 1965 UTC via an ATLAS SLV-3 AGENA D launch vehicle from the Air Force Western Test Range (AFWTR). Payloads include a variety of satellites, spacecraft, and rockets equipped with specific instruments for various scientific and technological missions. These include communications satellites like Starlink; space stations such as the ISS; scientific satellites like the Hubble; Earth observation satellites from companies like Planet Labs, Umbra, and HawkEye 360; GPS; miniature CubeSats for education and research; and military/defense satellites.

Loading next visibility...
SECOR 4 (EGRS 4) details
Identifier
1315, 1965-027B
Orbit
LEO
Last TLE update2 days ago
Origin
Flag of USACE/GIMR (US)
ManufacturerITT
MissionDefense Geodetic
Bus & MotorSECOR, Unknown motor
Mass18 kg wet, 18 kg dry
Launch date (UTC)
1965-04-03 (60 years ago)
Launch vehicle
ATLAS SLV-3 AGENA D
Launch site
Air Force Western Test Range (AFWTR)
Object type
Payload
Rocket body
Debris
Shape & HBRBox, 0.4 m
Radar Cross Section0.105 m², Medium (>0.1 m² and < 1m²)

Expand to show TLE details & history

TLE from 2 days ago
0 SECOR 4 (EGRS 4)
1 01315U 65027B   25035.15484238  .00000022  00000-0  53513-4 0  9995
2 01315  90.2429   4.4033 0032708  62.3684 309.6363 12.92652308822584
Epoch: 2025-02-04T03:42Z
Definitive object data (Epoch: 2025-02-04T03:42:58.381Z)
Latitude11.67101°
Longitude174.04592°
Altitude1,277.176 km
Speed7.226 km/s
True Right ascension00h 17m 24s
True Declination11° 36' 28"
Sunlit
Object was in daylight at TLE epoch
Visualization TLE readout
Latitude7.701°
Longitude-5.83817°
Altitude1,303.271 km
Speed7.201 km/s
Apparent Right ascension10h 00m 04s
Apparent Declination-19° 29' 02"
Sunlit
Object is in full shadow
Visualization observer readout
Local Sidereal Time17:53:57
Azimuth272.249° WNW
Elevation-33.967°
Doppler factor1
Orbital elements
Apogee altitude1,313.224 km
Perigee altitude1,263.075 km
Semi-major axis7,666.286 km
Eccentricity0.0032708
Inclination90.2429°
RAAN4.4033°
Arg. of periapsis62.3684°
True anomaly309.3469°
Mean anomaly309.6363°
Eccentric anomaly309.49168°
Mean motion3.23345 °/min
BSTAR0.000053513
Orbital period111.34 mins
Loading maneuver chart data...
Loading historical data...
Loading historical data...
Loading historical data...
Loading historical data...
Loading historical data...
Loading historical data...
Loading historical data...

SECOR 4 (EGRS 4) Visibility forecast

Observer location: undefined°, undefined

Span
Click to sort rows by Start time (UTC) header in descending order
Start Az.
Max El. time (UTC)
Max El. Az.
Max El.
End time (UTC)
End Az.
11 mins2025-02-05 20:39:14.555Z120.052° SE2025-02-05 20:45:14.555Z66.613° ENE21.532°2025-02-05 20:50:14.555Z24.167° NE
13 mins2025-02-05 22:29:14.555Z191.536° SSW2025-02-05 22:35:14.555Z270.97° WNW42.093°2025-02-05 22:42:14.555Z350.87° N
7 mins2025-02-06 08:20:14.555Z52.936° ENE2025-02-06 08:23:14.555Z79.451° E15.658°2025-02-06 08:27:14.555Z111.638° ESE
13 mins2025-02-06 10:09:14.555Z1.431° NNE2025-02-06 10:15:14.555Z210.442° SW44.739°2025-02-06 10:22:14.555Z186.491° SSW
6 mins2025-02-06 12:02:14.555Z314.665° NW2025-02-06 12:05:14.555Z288.995° WNW14.692°2025-02-06 12:08:14.555Z264.577° W
|